Location: Unspecified
(51.5087°N, 0.0879°W)
Time: 03:20:11
(UTC+00:00)

Daily predictions for brighter satellites

Satellite Brightness Start Highest point End
(mag) Time Altitude Azimuth Time Altitude Azimuth Time Altitude Azimuth
ACS3 Solar Sail 4.0 00:12:07 10° NE 00:13:38 14° ENE 00:13:38 14° ENE
ATLAS 3B R/B 4.2 00:27:15 31° ENE 00:27:15 31° ENE 00:31:28 10° NE
Cosmos 2278 Rocket 4.3 00:21:48 10° NNW 00:25:53 22° NNE 00:25:53 22° NNE
Cosmos 2219 Rocket 4.2 00:57:10 22° NE 00:57:10 22° NE 00:59:09 10° NE
Cosmos 2333 Rocket 3.9 01:10:36 29° NNE 01:10:36 29° NNE 01:13:23 10° NNE
Cosmos 1943 Rocket 4.0 01:06:23 10° NNW 01:09:15 27° N 01:09:15 27° N
Cosmos 1980 Rocket 4.3 01:16:18 19° NNW 01:16:18 19° NNW 01:19:51 10° NNE
SL-16 R/B 3.8 01:25:34 30° N 01:25:34 30° N 01:28:40 10° NNE
USA 267 3.8 01:20:31 10° E 01:26:11 54° NNE 01:26:11 54° NNE
Cosmos 2322 Rocket 3.7 01:35:10 32° NNE 01:35:10 32° NNE 01:38:16 10° NNE
Cosmos 2237 Rocket 4.3 01:40:56 18° E 01:40:56 18° E 01:43:55 10° ENE
Cosmos 2360 Rocket 3.6 01:45:35 34° N 01:45:35 34° N 01:48:54 10° NNE
IDEFIX/ARIANE 42P 4.2 01:38:43 10° NNE 01:41:25 31° NNE 01:41:25 31° NNE
ACS3 Solar Sail 2.5 01:53:22 10° NNE 01:57:17 46° NNE 01:57:17 46° NNE
ALOS 4.5 01:57:09 10° NE 01:59:30 20° ENE 01:59:30 20° ENE
ADEOS Rocket 3.7 01:59:56 10° NNE 02:05:18 48° E 02:05:18 48° E
Cosmos 2278 Rocket 3.9 02:05:28 10° NNW 02:07:40 24° NNW 02:07:40 24° NNW
ATLAS 3B R/B 3.1 02:14:27 65° NW 02:14:42 66° NW 02:22:36 10° NE
CZ-2D R/B 3.3 02:14:48 10° NNE 02:19:10 37° E 02:19:10 37° E
NPP 4.5 02:16:32 10° NNE 02:20:17 46° N 02:20:17 46° N
Cosmos 2369 Rocket 4.3 02:19:17 10° NNW 02:23:51 24° NE 02:28:24 10° E
BREEZE-M R/B 4.3 02:27:59 62° ESE 02:27:59 62° ESE 02:33:09 10° E
Cosmos 2173 Rocket 4.2 02:29:12 65° E 02:29:12 65° E 02:35:17 10° NNE
MSX 4.5 02:26:04 10° N 02:30:22 48° NNW 02:30:22 48° NNW
USA 215 4.4 02:28:31 10° ENE 02:34:06 29° SE 02:34:42 28° SE
ATLAS 5 CENTAUR R/B 4.1 02:39:10 13° NNE 02:39:10 13° NNE 02:39:43 10° NNE
ADEOS II 3.1 02:32:27 10° NNE 02:37:22 39° E 02:37:37 39° ESE
Cosmos 2219 Rocket 3.2 02:38:50 36° NNW 02:38:50 36° NNW 02:43:06 10° NNE
Cosmos 1459 Rocket 4.0 02:40:37 72° ESE 02:40:52 73° E 02:47:12 10° NNE
H-2A R/B 4.3 02:41:14 10° NE 02:44:17 19° E 02:45:18 17° ESE
Cosmos 2322 4.0 02:48:24 61° NNW 02:48:24 61° NNW 02:53:24 10° NNE
H-2A R/B 2.8 02:45:06 10° NNE 02:49:49 43° E 02:49:56 43° ESE
Cosmos 1725 Rocket 4.3 02:50:53 51° SE 02:52:11 63° E 02:58:25 10° NNE
Cosmos 2333 Rocket 4.0 02:52:36 20° NW 02:53:07 20° NNW 02:57:13 10° NNE
COSMOS 2428 2.9 02:54:49 65° NNW 02:54:49 65° NNW 03:00:04 10° NNE
Cosmos 1943 Rocket 4.4 02:50:10 10° NW 02:50:43 13° NW 02:50:43 13° NW
NOSS 0 Rocket 3.8 02:55:47 82° SSE 02:56:00 85° ESE 03:02:18 10° NNE
SL-16 R/B 3.3 02:51:09 10° SE 02:57:04 50° ENE 03:03:03 10° N
Resurs 1-4 Rocket 2.1 02:52:42 10° NNE 02:57:46 78° ENE 02:57:46 78° ENE
Cosmos 1864 Rocket 4.4 03:00:18 65° SSE 03:01:12 78° E 03:07:24 10° NNE
USA 59 Rocket 1.7 03:03:04 25° NE 03:03:04 25° NE 03:05:38 10° E
Cosmos 2151 Rocket 4.2 03:04:56 54° NNE 03:04:56 54° NNE 03:08:29 10° NNE
SL-16 R/B 4.3 03:07:23 14° NW 03:08:50 16° NNW 03:12:12 10° N
USA 267 3.2 03:03:06 10° ESE 03:09:40 82° NNE 03:13:34 27° WNW
USA 229 4.5 03:09:37 33° NW 03:11:31 39° NNW 03:18:12 10° NE
Envisat 3.0 03:08:06 10° NNE 03:12:45 70° NNW 03:12:45 70° NNW
Cosmos 1125 Rocket 3.5 03:13:33 71° NNW 03:13:33 71° NNW 03:18:27 10° NNE
Cosmos 2322 Rocket 4.0 03:16:56 18° NW 03:17:56 18° NNW 03:21:46 10° NNE
ATLAS CENTAUR R/B 3.9 03:20:30 10° ENE 03:20:30 10° ENE 03:20:32 10° ENE
METEOR-M 4.4 03:15:37 10° NNE 03:20:56 62° ESE 03:22:36 42° SSE
Cosmos 1980 3.5 03:20:59 73° SW 03:21:33 85° WNW 03:27:16 10° NNE
Okean 2 Rocket 3.2 03:23:07 68° NNE 03:23:07 68° NNE 03:26:58 10° N
IDEFIX/ARIANE 42P 4.0 03:18:50 10° N 03:22:06 23° NW 03:22:06 23° NW
Cosmos 2237 Rocket 2.0 03:22:44 70° SW 03:23:26 88° WNW 03:29:10 10° NNE
Cosmos 1892 Rocket 4.1 03:19:11 10° N 03:23:35 58° ENE 03:25:16 34° SE
Okean 1 Rocket 3.1 03:24:44 74° NE 03:24:44 74° NE 03:28:45 10° NNE
Meteor 2-3 Rocket 3.6 03:22:04 10° NNW 03:27:49 76° W 03:29:13 52° S
Cosmos 2061 Rocket 4.2 03:24:50 27° S 03:28:28 69° E 03:34:44 10° NNE
Cosmos 2360 Rocket 4.0 03:27:18 16° NW 03:28:37 18° NNW 03:32:21 10° NNE
DNEPR-1 R/B 4.4 03:29:31 39° SE 03:29:54 40° ESE 03:33:56 10° NE
RESURS DK-1 4.4 03:33:05 17° SE 03:34:42 22° ESE 03:37:48 10° ENE
Cosmos 2100 Rocket 4.2 03:34:26 46° W 03:34:54 47° WNW 03:40:51 10° N
ALOS 2.5 03:33:32 10° N 03:37:33 50° NW 03:37:33 50° NW
ACS3 Solar Sail 3.1 03:36:55 10° N 03:40:58 20° NW 03:40:58 20° NW
Cosmos 1802 Rocket 4.1 03:40:41 47° SW 03:42:16 60° WNW 03:48:39 10° N
Meteor 2-1 Rocket 4.2 03:43:29 42° SSW 03:45:33 78° WNW 03:51:32 10° N
AQUA 3.9 03:41:51 10° NNE 03:46:34 72° ESE 03:48:30 35° S
Cosmos 2233 Rocket 3.9 03:45:31 33° SSW 03:48:31 79° W 03:54:53 10° N
CZ-2C R/B 3.8 03:44:41 10° NNE 03:49:28 38° E 03:54:14 10° SSE
Cosmos 2016 Rocket 4.0 03:48:54 42° SW 03:50:54 60° WNW 03:57:11 10° N
ADEOS Rocket 3.6 03:45:48 10° N 03:51:08 37° WNW 03:52:14 35° W
Cosmos 1656 Rocket 3.5 03:50:09 10° NW 03:55:28 59° WSW 04:00:46 10° SSE
Cosmos 2285 Rocket 4.0 03:53:29 38° SW 03:56:02 69° WNW 04:02:28 10° NNE
Cosmos 2150 Rocket 3.9 03:54:18 42° SSW 03:56:07 87° WNW 04:01:18 10° NNE
NOSS 2-1 (C) 3.7 03:55:16 31° NNW 03:56:33 53° NE 04:00:28 10° ESE
GP-B 2.9 03:52:38 10° N 03:57:01 75° W 03:58:14 46° SSW
CZ-2D R/B 2.6 03:54:49 10° N 03:59:41 39° WNW 04:00:26 37° W
Cosmos 1269 Rocket 4.1 03:55:35 10° NNW 04:00:53 81° ENE 04:06:10 10° SSE
NOSS 2-1 (E) 3.8 03:59:49 25° NNW 04:01:29 51° NE 04:05:21 10° ESE
USA 238 DEB 3.9 03:55:07 10° NW 04:02:21 62° SW 04:10:14 10° SSE
BlueWalker 3 3.2 04:03:48 26° SSE 04:03:48 26° SSE 04:05:44 10° SE
USA 238 3.9 03:55:16 10° NW 04:02:31 62° SW 04:10:24 10° SSE
ATLAS 3B R/B 4.0 04:01:40 18° WNW 04:06:54 36° NNW 04:14:03 10° NE
Cosmos 2369 Rocket 2.1 04:02:57 10° NNW 04:08:38 89° WSW 04:14:14 10° SSE
Cosmos 1758 Rocket 4.4 04:04:34 10° N 04:08:51 50° ENE 04:13:03 10° SSE
Meteor 1-28 Rocket 3.0 04:06:46 10° SSE 04:10:03 75° ENE 04:13:23 10° N
Cosmos 921 Rocket 3.1 04:06:56 10° NNW 04:11:22 83° ENE 04:15:50 10° SSE
SL-16 R/B 2.4 04:08:25 19° SSW 04:12:30 70° ESE 04:18:09 10° NNE
Cosmos 1743 2.0 04:09:27 10° NNW 04:12:27 75° WNW 04:12:27 75° WNW
Cosmos 1455 Rocket 2.9 04:12:09 38° SW 04:13:37 65° WNW 04:17:57 10° N
Cosmos 1023 Rocket 4.3 04:09:05 10° NNW 04:14:19 75° WSW 04:19:27 10° SSE
Cosmos 2151 4.2 04:11:39 10° N 04:15:36 42° ENE 04:19:32 10° SE
ADEOS II 2.7 04:12:06 10° N 04:16:55 38° WNW 04:18:25 31° W
USA 215 3.3 04:11:11 10° ENE 04:17:48 77° SSE 04:22:04 24° SW
Geosat 4.4 04:14:38 10° S 04:19:14 36° WSW 04:23:51 10° NW
H-2A R/B 2.1 04:15:40 10° N 04:19:55 58° WNW 04:21:40 32° SW
ATLAS 5 CENTAUR R/B 3.5 04:18:33 10° NNW 04:20:15 13° N 04:22:05 10° NNE
Nadezhda 4 Rocket 4.3 04:15:47 10° N 04:22:08 72° ENE 04:28:24 10° SSE
ARIANE 6 FM1 Upper Stage 2.8 04:21:59 38° W 04:23:15 56° NW 04:27:13 10° NE
Tsikada Rocket 4.5 04:17:27 10° NNW 04:23:19 39° W 04:27:53 16° SSW
Cosmos 2219 Rocket 4.3 04:20:37 10° NW 04:23:29 14° NNW 04:26:21 10° N
Lacrosse 5 rocket 3.5 04:24:06 10° SSE 04:25:27 12° SE 04:26:50 10° ESE
Cosmos 2298 Rocket 4.1 04:22:48 28° SW 04:25:28 58° WNW 04:30:43 10° NNE
H-2A R/B 2.8 04:24:42 10° N 04:28:59 31° WNW 04:30:26 26° W
SJ 16-02 2.9 04:27:11 10° N 04:31:14 38° ENE 04:35:15 10° SE
Cosmos 2297 3.7 04:29:57 10° NW 04:35:39 65° WSW 04:41:19 10° SSE
Cosmos 1140 Rocket 3.5 04:30:41 10° NNW 04:35:46 55° WSW 04:40:48 10° S
Cosmos 371 Rocket 4.0 04:31:54 10° NNW 04:36:39 56° ENE 04:41:22 10° SE
Resurs 1-4 Rocket 3.5 04:33:22 10° N 04:37:14 21° NW 04:38:49 18° WNW
COSMOS 2428 4.3 04:36:47 15° WNW 04:39:37 21° NNW 04:43:52 10° NNE
UNK 3.6 04:35:54 10° S 04:40:27 68° WSW 04:45:03 10° NNW
SL-16 R/B 3.0 04:35:07 10° SSW 04:40:48 37° W 04:46:33 10° NNW
Cosmos 1939 Rocket 3.2 04:37:29 10° NNE 04:41:12 60° E 04:44:50 10° S
ARGOS 3.4 04:39:20 10° N 04:44:34 49° WNW 04:49:11 13° SW
Cosmos 1782 2.7 04:42:32 21° SW 04:44:38 49° WNW 04:48:08 10° N
NOSS 3-4 (A) 3.2 04:41:46 20° WSW 04:45:31 71° NW 04:51:33 10° NE
NOSS 3-4 (C) 3.2 04:42:06 20° WSW 04:45:54 71° NW 04:51:59 10° NE
NOSS 2-1 (D) 3.2 04:44:03 16° WNW 04:46:32 53° SW 04:50:43 10° SSE
Aureole 3 Rocket 3.3 04:46:17 26° W 04:46:59 28° WNW 04:49:45 10° NNW
Cosmos 1602 Rocket 3.8 04:42:50 10° N 04:47:18 73° ENE 04:51:42 10° SSE
Cosmos 407 Rocket 3.4 04:42:03 10° NNW 04:47:21 83° WSW 04:52:33 10° SSE
ATLAS CENTAUR R/B 1.3 04:50:32 25° WNW 04:51:00 27° NW 04:53:13 10° NNE
USA 59 Rocket 0.0 04:48:38 16° WNW 04:51:03 43° SW 04:55:13 10° SSE
BREEZE-M DEB (TANK) 4.0 04:43:03 16° W 04:51:59 75° S 04:55:37 10° E
SL-24 R/B 4.5 04:46:55 10° N 04:52:03 61° W 04:56:50 10° SSW
USA 267 3.6 04:46:49 10° SSE 04:53:02 44° SW 04:59:17 10° WNW
Meteor 1-25 Rocket 4.5 04:49:26 10° N 04:55:15 78° ENE 05:01:04 10° SSE
Cosmos 2263 4.3 04:55:12 10° NW 05:00:37 51° WSW 05:06:01 10° S
Cosmos 1072 Rocket 4.5 04:58:04 10° SSW 05:04:15 67° WNW 05:10:23 10° N
Cosmos 2026 Rocket 4.0 04:58:56 10° N 05:05:02 83° E 05:11:07 10° S
Cosmos 1190 Rocket 4.4 05:00:48 10° NNW 05:06:05 70° ENE 05:11:22 10° SSE
Cosmos 2237 Rocket 3.5 05:04:33 13° W 05:08:18 24° NW 05:12:53 10° NNE
Cosmos 2034 Rocket 4.0 05:04:02 10° S 05:10:12 88° E 05:16:29 10° N
SL-08 RB Rocket 4.3 05:06:40 10° N 05:10:47 36° WNW 05:14:50 10° SW
Cosmos 2228 3.8 05:07:21 11° SW 05:10:51 30° WNW 05:14:37 10° N
RESURS DK-1 2.6 05:08:20 12° SW 05:11:48 47° NW 05:15:40 10° NNE
Meteor 1-20 Rocket 4.2 05:06:29 10° NNW 05:12:07 63° W 05:17:36 10° S
Cosmos 972 Rocket 4.1 05:08:29 10° SSW 05:13:24 81° ESE 05:18:43 10° NNE
Tiangong 0.2 05:11:40 10° SW 05:13:26 14° S 05:15:11 10° SSE
IRS-1D 4.2 05:09:42 10° NNE 05:14:36 57° ESE 05:19:26 10° S
Cosmos 1464 Rocket 4.1 05:08:40 10° SSW 05:14:57 62° WNW 05:21:12 10° N
DNEPR-1 R/B 4.3 05:13:45 13° W 05:17:09 36° NW 05:21:18 10° NE
FengYun 1-2 T 4.2 05:12:15 10° NNE 05:17:48 73° WNW 05:23:21 10° SSW
CRYOSAT 2 4.3 05:13:11 10° S 05:18:04 79° W 05:22:59 10° N
SKYMED 2 3.5 05:14:26 10° S 05:18:45 69° WSW 05:23:06 10° NNW
Cosmos 1626 Rocket 4.3 05:15:30 10° NNW 05:19:23 31° W 05:23:12 10° SSW
EO 1 Delta rocket 3.8 05:16:58 10° N 05:21:36 69° WNW 05:26:20 10° SSW
CZ-2C R/B 3.1 05:22:46 10° N 05:27:28 38° WNW 05:32:10 10° SW
COSMO-SKYMED 1 2.5 05:26:13 10° SSE 05:30:20 90° NE 05:34:28 10° NNW
Cosmos 676 Rocket 4.4 05:27:20 10° NNW 05:32:41 73° ENE 05:38:00 10° SSE
Cosmos 1606 Rocket 3.6 05:31:15 10° S 05:35:36 89° ESE 05:40:02 10° N
Cosmos 304 Rocket 4.0 05:31:08 10° NW 05:35:39 45° WSW 05:40:09 10° S
NOSS 3-1 (C) 4.0 05:32:00 10° NW 05:38:52 75° SW 05:47:30 10° SSE
GEOS 3 Rocket 3.8 05:36:31 10° NE 05:41:53 67° NW 05:47:12 10° WSW
